owner,sensor,date,latitude,longitude,vertical_datum,wind_speed,wind_to_direction,wind_speed_of_gust,qcFlag 
ADCP,ioos:station:wmo:42887:1,2009-12-01T00:00:00Z,28.1910,-88.4960,48.2,5.3,229.0,99.0,'11111222,11111222,11144222' 
ADCP,ioos:station:wmo:42887:1,2009-12-01T00:20:00Z,28.1910,-88.4960,48.2,3.9,247.0,99.0,'11111222,11111222,11144222' 
ADCP,ioos:station:wmo:42887:1,2009-12-01T00:40:00Z,28.1910,-88.4960,48.2,3.6,245.0,99.0,'11111222,11111222,11144222' 
ADCP,ioos:station:wmo:42887:1,2009-12-01T01:00:00Z,28.1910,-88.4960,48.2,6.5,313.0,99.0,'11111222,11111222,11144222' 
ADCP,ioos:station:wmo:42887:1,2009-12-01T01:20:00Z,28.1910,-88.4960,48.2,5.5,308.0,99.0,'11111222,11111222,11144222' 
ADCP,ioos:station:wmo:42887:1,2009-12-01T01:40:00Z,28.1910,-88.4960,48.2,4.6,285.0,99.0,'11111222,11111222,11144222' 
ADCP,ioos:station:wmo:42887:1,2009-12-01T02:00:00Z,28.1910,-88.4960,48.2,4.6,285.0,99.0,'11111222,11111222,11144222' 
ADCP,ioos:station:wmo:42887:1,2009-12-01T02:20:00Z,28.1910,-88.4960,48.2,5.6,320.0,99.0,'11111222,11111222,11144222' 
ADCP,ioos:station:wmo:42887:1,2009-12-01T02:40:00Z,28.1910,-88.4960,48.2,7.6,331.0,99.0,'11111222,11111222,11144222' 
ADCP,ioos:station:wmo:42887:1,2009-12-01T03:00:00Z,28.1910,-88.4960,48.2,7.5,335.0,99.0,'11111222,11111222,11144222' 
ADCP,ioos:station:wmo:42887:1,2009-12-01T03:20:00Z,28.1910,-88.4960,48.2,6.7,346.0,99.0,'11111222,11111222,11144222' 
ADCP,ioos:station:wmo:42887:1,2009-12-01T03:40:00Z,28.1910,-88.4960,48.2,7.3,356.0,99.0,'11111222,11111222,11144222' 
ADCP,ioos:station:wmo:42887:1,2009-12-01T04:00:00Z,28.1910,-88.4960,48.2,7.6,9.0,99.0,'11111222,11111222,11144222' 
ADCP,ioos:station:wmo:42887:1,2009-12-01T04:20:00Z,28.1910,-88.4960,48.2,8.5,14.0,99.0,'11111222,11111222,11144222' 
ADCP,ioos:station:wmo:42887:1,2009-12-01T04:40:00Z,28.1910,-88.4960,48.2,8.0,6.0,99.0,'11111222,11111222,11144222' 
ADCP,ioos:station:wmo:42887:1,2009-12-01T05:00:00Z,28.1910,-88.4960,48.2,8.4,10.0,99.0,'11111222,11111222,11144222' 
ADCP,ioos:station:wmo:42887:1,2009-12-01T05:20:00Z,28.1910,-88.4960,48.2,7.9,10.0,99.0,'11111222,11111222,11144222' 
ADCP,ioos:station:wmo:42887:1,2009-12-01T05:40:00Z,28.1910,-88.4960,48.2,7.2,13.0,99.0,'11111222,11111222,11144222' 
ADCP,ioos:station:wmo:42887:1,2009-12-01T06:00:00Z,28.1910,-88.4960,48.2,8.2,10.0,99.0,'11111222,11111222,11144222' 
ADCP,ioos:station:wmo:42887:1,2009-12-01T06:20:00Z,28.1910,-88.4960,48.2,8.9,21.0,99.0,'11111222,11111222,11144222' 
ADCP,ioos:station:wmo:42887:1,2009-12-01T06:40:00Z,28.1910,-88.4960,48.2,7.9,24.0,99.0,'11111222,11111222,11144222' 
ADCP,ioos:station:wmo:42887:1,2009-12-01T07:00:00Z,28.1910,-88.4960,48.2,7.9,19.0,99.0,'11111222,11111222,11144222' 
ADCP,ioos:station:wmo:42887:1,2009-12-01T07:20:00Z,28.1910,-88.4960,48.2,8.3,26.0,99.0,'11111222,11111222,11144222' 
ADCP,ioos:station:wmo:42887:1,2009-12-01T07:40:00Z,28.1910,-88.4960,48.2,8.9,37.0,99.0,'11111222,11111222,11144222' 
ADCP,ioos:station:wmo:42887:1,2009-12-01T08:00:00Z,28.1910,-88.4960,48.2,8.5,35.0,99.0,'11111222,11111222,11144222' 
ADCP,ioos:station:wmo:42887:1,2009-12-01T08:20:00Z,28.1910,-88.4960,48.2,7.9,35.0,99.0,'11111222,11111222,11144222' 
ADCP,ioos:station:wmo:42887:1,2009-12-01T08:40:00Z,28.1910,-88.4960,48.2,7.2,40.0,99.0,'11111222,11111222,11144222' 
ADCP,ioos:station:wmo:42887:1,2009-12-01T09:00:00Z,28.1910,-88.4960,48.2,6.9,43.0,99.0,'11111222,11111222,11144222' 
ADCP,ioos:station:wmo:42887:1,2009-12-01T09:20:00Z,28.1910,-88.4960,48.2,7.2,47.0,99.0,'11111222,11111222,11144222' 
ADCP,ioos:station:wmo:42887:1,2009-12-01T09:40:00Z,28.1910,-88.4960,48.2,6.3,42.0,99.0,'11111222,11111222,11144222' 
ADCP,ioos:station:wmo:42887:1,2009-12-01T10:00:00Z,28.1910,-88.4960,48.2,6.0,72.0,99.0,'11111222,11111222,11144222' 
ADCP,ioos:station:wmo:42887:1,2009-12-01T10:20:00Z,28.1910,-88.4960,48.2,6.2,78.0,99.0,'11111222,11111222,11144222' 
ADCP,ioos:station:wmo:42887:1,2009-12-01T10:40:00Z,28.1910,-88.4960,48.2,6.2,78.0,99.0,'11111222,11111222,11144222' 
ADCP,ioos:station:wmo:42887:1,2009-12-01T11:00:00Z,28.1910,-88.4960,48.2,6.2,78.0,99.0,'11111222,11111222,11144222' 
ADCP,ioos:station:wmo:42887:1,2009-12-01T11:20:00Z,28.1910,-88.4960,48.2,6.2,78.0,99.0,'11111222,11111222,11144222' 
ADCP,ioos:station:wmo:42887:1,2009-12-01T11:40:00Z,28.1910,-88.4960,48.2,7.4,83.0,99.0,'11111222,11111222,11144222' 
ADCP,ioos:station:wmo:42887:1,2009-12-01T12:00:00Z,28.1910,-88.4960,48.2,7.4,81.0,99.0,'11111222,11111222,11144222' 
ADCP,ioos:station:wmo:42887:1,2009-12-01T12:20:00Z,28.1910,-88.4960,48.2,8.6,75.0,99.0,'11111222,11111222,11144222' 
ADCP,ioos:station:wmo:42887:1,2009-12-01T12:40:00Z,28.1910,-88.4960,48.2,8.6,79.0,99.0,'11111222,11111222,11144222' 
ADCP,ioos:station:wmo:42887:1,2009-12-01T13:00:00Z,28.1910,-88.4960,48.2,8.7,86.0,99.0,'11111222,11111222,11144222' 
ADCP,ioos:station:wmo:42887:1,2009-12-01T13:20:00Z,28.1910,-88.4960,48.2,9.1,87.0,99.0,'11111222,11111222,11144222' 
ADCP,ioos:station:wmo:42887:1,2009-12-01T13:40:00Z,28.1910,-88.4960,48.2,9.6,89.0,99.0,'11111222,11111222,11144222' 
ADCP,ioos:station:wmo:42887:1,2009-12-01T14:00:00Z,28.1910,-88.4960,48.2,9.8,96.0,99.0,'11111222,11111222,11144222' 
ADCP,ioos:station:wmo:42887:1,2009-12-01T14:20:00Z,28.1910,-88.4960,48.2,10.5,103.0,99.0,'11111222,11111222,11144222' 
ADCP,ioos:station:wmo:42887:1,2009-12-01T14:40:00Z,28.1910,-88.4960,48.2,10.2,103.0,99.0,'11111222,11111222,11144222' 
ADCP,ioos:station:wmo:42887:1,2009-12-01T15:00:00Z,28.1910,-88.4960,48.2,8.7,105.0,99.0,'11111222,11111222,11144222' 
ADCP,ioos:station:wmo:42887:1,2009-12-01T15:20:00Z,28.1910,-88.4960,48.2,9.5,114.0,99.0,'11111222,11111222,11144222' 
ADCP,ioos:station:wmo:42887:1,2009-12-01T15:40:00Z,28.1910,-88.4960,48.2,10.1,114.0,99.0,'11111222,11111222,11144222' 
ADCP,ioos:station:wmo:42887:1,2009-12-01T16:00:00Z,28.1910,-88.4960,48.2,10.1,114.0,99.0,'11111222,11111222,11144222' 
ADCP,ioos:station:wmo:42887:1,2009-12-01T16:20:00Z,28.1910,-88.4960,48.2,11.6,124.0,99.0,'11111222,11111222,11144222' 
ADCP,ioos:station:wmo:42887:1,2009-12-01T16:40:00Z,28.1910,-88.4960,48.2,10.7,127.0,99.0,'11111222,11111222,11144222' 
ADCP,ioos:station:wmo:42887:1,2009-12-01T17:00:00Z,28.1910,-88.4960,48.2,10.7,135.0,99.0,'11111222,11111222,11144222' 
ADCP,ioos:station:wmo:42887:1,2009-12-01T17:20:00Z,28.1910,-88.4960,48.2,11.1,134.0,99.0,'11111222,11111222,11144222' 
ADCP,ioos:station:wmo:42887:1,2009-12-01T17:40:00Z,28.1910,-88.4960,48.2,10.2,140.0,99.0,'11111222,11111222,11144222' 
ADCP,ioos:station:wmo:42887:1,2009-12-01T18:00:00Z,28.1910,-88.4960,48.2,10.2,140.0,99.0,'11111222,11111222,11144222' 
ADCP,ioos:station:wmo:42887:1,2009-12-01T18:20:00Z,28.1910,-88.4960,48.2,9.5,145.0,99.0,'11111222,11111222,11144222' 
ADCP,ioos:station:wmo:42887:1,2009-12-01T18:40:00Z,28.1910,-88.4960,48.2,11.2,155.0,99.0,'11111222,11111222,11144222' 
ADCP,ioos:station:wmo:42887:1,2009-12-01T19:00:00Z,28.1910,-88.4960,48.2,11.9,157.0,99.0,'11111222,11111222,11144222' 
ADCP,ioos:station:wmo:42887:1,2009-12-01T19:20:00Z,28.1910,-88.4960,48.2,9.9,153.0,99.0,'11111222,11111222,11144222' 
ADCP,ioos:station:wmo:42887:1,2009-12-01T19:40:00Z,28.1910,-88.4960,48.2,12.4,148.0,99.0,'11111222,11111222,11144222' 
ADCP,ioos:station:wmo:42887:1,2009-12-01T20:20:00Z,28.1910,-88.4960,48.2,13.1,166.0,99.0,'11111222,11111222,11144222' 
ADCP,ioos:station:wmo:42887:1,2009-12-01T20:40:00Z,28.1910,-88.4960,48.2,13.0,171.0,99.0,'11111222,11111222,11144222' 
ADCP,ioos:station:wmo:42887:1,2009-12-01T21:00:00Z,28.1910,-88.4960,48.2,9.9,172.0,99.0,'11111222,11111222,11144222' 
ADCP,ioos:station:wmo:42887:1,2009-12-01T21:20:00Z,28.1910,-88.4960,48.2,8.4,153.0,99.0,'11111222,11111222,11144222' 
ADCP,ioos:station:wmo:42887:1,2009-12-01T22:00:00Z,28.1910,-88.4960,48.2,9.4,162.0,99.0,'11111222,11111222,11144222' 
ADCP,ioos:station:wmo:42887:1,2009-12-01T22:20:00Z,28.1910,-88.4960,48.2,7.1,184.0,99.0,'11111222,11111222,11144222' 
ADCP,ioos:station:wmo:42887:1,2009-12-01T22:40:00Z,28.1910,-88.4960,48.2,12.1,194.0,99.0,'11111222,11111222,11144222' 
ADCP,ioos:station:wmo:42887:1,2009-12-01T23:00:00Z,28.1910,-88.4960,48.2,7.5,203.0,99.0,'11111222,11111222,11144222' 
ADCP,ioos:station:wmo:42887:1,2009-12-01T23:20:00Z,28.1910,-88.4960,48.2,10.1,188.0,99.0,'11111222,11111222,11144222' 
ADCP,ioos:station:wmo:42887:1,2009-12-01T23:40:00Z,28.1910,-88.4960,48.2,5.9,192.0,99.0,'11111222,11111222,11144222' 
ADCP,ioos:station:wmo:42887:1,2009-12-02T00:00:00Z,28.1910,-88.4960,48.2,6.6,185.0,99.0,'11111222,11111222,11144222' 
ADCP,ioos:station:wmo:42887:1,2009-12-02T00:20:00Z,28.1910,-88.4960,48.2,10.5,186.0,99.0,'11111222,11111222,11144222' 
ADCP,ioos:station:wmo:42887:1,2009-12-02T00:40:00Z,28.1910,-88.4960,48.2,11.9,202.0,99.0,'11111222,11111222,11144222' 
ADCP,ioos:station:wmo:42887:1,2009-12-02T01:00:00Z,28.1910,-88.4960,48.2,14.3,225.0,99.0,'11111222,11111222,11144222' 
ADCP,ioos:station:wmo:42887:1,2009-12-02T01:20:00Z,28.1910,-88.4960,48.2,12.2,225.0,99.0,'11111222,11111222,11144222' 
ADCP,ioos:station:wmo:42887:1,2009-12-02T01:40:00Z,28.1910,-88.4960,48.2,13.3,213.0,99.0,'11111222,11111222,11144222' 
ADCP,ioos:station:wmo:42887:1,2009-12-02T02:00:00Z,28.1910,-88.4960,48.2,12.4,215.0,99.0,'11111222,11111222,11144222' 
ADCP,ioos:station:wmo:42887:1,2009-12-02T02:20:00Z,28.1910,-88.4960,48.2,11.5,220.0,99.0,'11111222,11111222,11144222' 
ADCP,ioos:station:wmo:42887:1,2009-12-02T02:40:00Z,28.1910,-88.4960,48.2,11.7,226.0,99.0,'11111222,11111222,11144222' 
ADCP,ioos:station:wmo:42887:1,2009-12-02T03:00:00Z,28.1910,-88.4960,48.2,12.1,231.0,99.0,'11111222,11111222,11144222' 
ADCP,ioos:station:wmo:42887:1,2009-12-02T03:20:00Z,28.1910,-88.4960,48.2,12.0,232.0,99.0,'11111222,11111222,11144222' 
ADCP,ioos:station:wmo:42887:1,2009-12-02T03:40:00Z,28.1910,-88.4960,48.2,11.3,248.0,99.0,'11111222,11111222,11144222' 
ADCP,ioos:station:wmo:42887:1,2009-12-02T04:00:00Z,28.1910,-88.4960,48.2,9.4,239.0,99.0,'11111222,11111222,11144222' 
ADCP,ioos:station:wmo:42887:1,2009-12-02T04:20:00Z,28.1910,-88.4960,48.2,7.8,235.0,99.0,'11111222,11111222,11144222' 
ADCP,ioos:station:wmo:42887:1,2009-12-02T04:40:00Z,28.1910,-88.4960,48.2,7.1,238.0,99.0,'11111222,11111222,11144222' 
ADCP,ioos:station:wmo:42887:1,2009-12-02T05:00:00Z,28.1910,-88.4960,48.2,6.1,255.0,99.0,'11111222,11111222,11144222' 
ADCP,ioos:station:wmo:42887:1,2009-12-02T05:20:00Z,28.1910,-88.4960,48.2,5.8,197.0,99.0,'11111222,11111222,11144222' 
ADCP,ioos:station:wmo:42887:1,2009-12-02T05:40:00Z,28.1910,-88.4960,48.2,6.1,206.0,99.0,'11111222,11111222,11144222' 
ADCP,ioos:station:wmo:42887:1,2009-12-02T06:00:00Z,28.1910,-88.4960,48.2,7.9,222.0,99.0,'11111222,11111222,11144222' 
ADCP,ioos:station:wmo:42887:1,2009-12-02T06:20:00Z,28.1910,-88.4960,48.2,12.1,212.0,99.0,'11111222,11111222,11144222' 
ADCP,ioos:station:wmo:42887:1,2009-12-02T06:40:00Z,28.1910,-88.4960,48.2,9.8,197.0,99.0,'11111222,11111222,11144222' 
ADCP,ioos:station:wmo:42887:1,2009-12-02T07:00:00Z,28.1910,-88.4960,48.2,6.2,185.0,99.0,'11111222,11111222,11144222' 
ADCP,ioos:station:wmo:42887:1,2009-12-02T07:20:00Z,28.1910,-88.4960,48.2,11.8,205.0,99.0,'11111222,11111222,11144222' 
ADCP,ioos:station:wmo:42887:1,2009-12-02T07:40:00Z,28.1910,-88.4960,48.2,10.2,204.0,99.0,'11111222,11111222,11144222' 
ADCP,ioos:station:wmo:42887:1,2009-12-02T08:00:00Z,28.1910,-88.4960,48.2,14.9,217.0,99.0,'11111222,11111222,11144222' 
ADCP,ioos:station:wmo:42887:1,2009-12-02T08:20:00Z,28.1910,-88.4960,48.2,16.8,211.0,99.0,'11111222,11111222,11144222' 
ADCP,ioos:station:wmo:42887:1,2009-12-02T08:40:00Z,28.1910,-88.4960,48.2,15.8,214.0,99.0,'11111222,11111222,11144222' 
ADCP,ioos:station:wmo:42887:1,2009-12-02T09:00:00Z,28.1910,-88.4960,48.2,13.3,190.0,99.0,'11111222,11111222,11144222' 
ADCP,ioos:station:wmo:42887:1,2009-12-02T09:20:00Z,28.1910,-88.4960,48.2,16.1,150.0,99.0,'11111222,11111222,11144222' 
ADCP,ioos:station:wmo:42887:1,2009-12-02T09:40:00Z,28.1910,-88.4960,48.2,17.2,152.0,99.0,'11111222,11111222,11144222' 
ADCP,ioos:station:wmo:42887:1,2009-12-02T10:00:00Z,28.1910,-88.4960,48.2,16.2,165.0,99.0,'11111222,11111222,11144222' 
ADCP,ioos:station:wmo:42887:1,2009-12-02T10:20:00Z,28.1910,-88.4960,48.2,14.5,173.0,99.0,'11111222,11111222,11144222' 
ADCP,ioos:station:wmo:42887:1,2009-12-02T10:40:00Z,28.1910,-88.4960,48.2,13.7,213.0,99.0,'11111222,11111222,11144222' 
ADCP,ioos:station:wmo:42887:1,2009-12-02T11:00:00Z,28.1910,-88.4960,48.2,15.1,185.0,99.0,'11111222,11111222,11144222' 
ADCP,ioos:station:wmo:42887:1,2009-12-02T11:20:00Z,28.1910,-88.4960,48.2,10.9,186.0,99.0,'11111222,11111222,11144222' 
ADCP,ioos:station:wmo:42887:1,2009-12-02T11:40:00Z,28.1910,-88.4960,48.2,10.3,222.0,99.0,'11111222,11111222,11144222' 
ADCP,ioos:station:wmo:42887:1,2009-12-02T12:00:00Z,28.1910,-88.4960,48.2,10.8,259.0,99.0,'11111222,11111222,11144222' 
ADCP,ioos:station:wmo:42887:1,2009-12-02T12:20:00Z,28.1910,-88.4960,48.2,9.4,265.0,99.0,'11111222,11111222,11144222' 
ADCP,ioos:station:wmo:42887:1,2009-12-02T12:40:00Z,28.1910,-88.4960,48.2,5.0,249.0,99.0,'11111222,11111222,11144222' 
ADCP,ioos:station:wmo:42887:1,2009-12-02T13:00:00Z,28.1910,-88.4960,48.2,5.5,217.0,99.0,'11111222,11111222,11144222' 
ADCP,ioos:station:wmo:42887:1,2009-12-02T13:20:00Z,28.1910,-88.4960,48.2,5.8,225.0,99.0,'11111222,11111222,11144222' 
ADCP,ioos:station:wmo:42887:1,2009-12-02T13:40:00Z,28.1910,-88.4960,48.2,9.1,184.0,99.0,'11111222,11111222,11144222' 
ADCP,ioos:station:wmo:42887:1,2009-12-02T14:00:00Z,28.1910,-88.4960,48.2,6.2,211.0,99.0,'11111222,11111222,11144222' 
ADCP,ioos:station:wmo:42887:1,2009-12-02T14:20:00Z,28.1910,-88.4960,48.2,5.4,206.0,99.0,'11111222,11111222,11144222' 
ADCP,ioos:station:wmo:42887:1,2009-12-02T14:40:00Z,28.1910,-88.4960,48.2,4.4,227.0,99.0,'11111222,11111222,11144222' 
ADCP,ioos:station:wmo:42887:1,2009-12-02T15:00:00Z,28.1910,-88.4960,48.2,4.4,157.0,99.0,'11111222,11111222,11144222' 
ADCP,ioos:station:wmo:42887:1,2009-12-02T15:20:00Z,28.1910,-88.4960,48.2,5.1,172.0,99.0,'11111222,11111222,11144222' 
ADCP,ioos:station:wmo:42887:1,2009-12-02T15:40:00Z,28.1910,-88.4960,48.2,6.8,158.0,99.0,'11111222,11111222,11144222' 
ADCP,ioos:station:wmo:42887:1,2009-12-02T16:00:00Z,28.1910,-88.4960,48.2,7.8,184.0,99.0,'11111222,11111222,11144222' 
ADCP,ioos:station:wmo:42887:1,2009-12-02T16:20:00Z,28.1910,-88.4960,48.2,6.3,170.0,99.0,'11111222,11111222,11144222' 
ADCP,ioos:station:wmo:42887:1,2009-12-02T16:40:00Z,28.1910,-88.4960,48.2,8.4,178.0,99.0,'11111222,11111222,11144222' 
ADCP,ioos:station:wmo:42887:1,2009-12-02T17:00:00Z,28.1910,-88.4960,48.2,8.0,186.0,99.0,'11111222,11111222,11144222' 
ADCP,ioos:station:wmo:42887:1,2009-12-02T17:20:00Z,28.1910,-88.4960,48.2,7.7,200.0,99.0,'11111222,11111222,11144222' 
ADCP,ioos:station:wmo:42887:1,2009-12-02T17:40:00Z,28.1910,-88.4960,48.2,9.5,199.0,99.0,'11111222,11111222,11144222' 
ADCP,ioos:station:wmo:42887:1,2009-12-02T18:00:00Z,28.1910,-88.4960,48.2,8.3,205.0,99.0,'11111222,11111222,11144222' 
ADCP,ioos:station:wmo:42887:1,2009-12-02T20:00:00Z,28.1910,-88.4960,48.2,9.2,237.0,99.0,'11111222,11111222,11144222' 
ADCP,ioos:station:wmo:42887:1,2009-12-02T20:20:00Z,28.1910,-88.4960,48.2,7.9,232.0,99.0,'11111222,11111222,11144222' 
ADCP,ioos:station:wmo:42887:1,2009-12-02T20:40:00Z,28.1910,-88.4960,48.2,11.1,231.0,99.0,'11111222,11111222,11144222' 
ADCP,ioos:station:wmo:42887:1,2009-12-02T21:00:00Z,28.1910,-88.4960,48.2,9.9,233.0,99.0,'11111222,11111222,11144222' 
ADCP,ioos:station:wmo:42887:1,2009-12-02T21:40:00Z,28.1910,-88.4960,48.2,10.7,259.0,99.0,'11111222,11111222,11144222' 
ADCP,ioos:station:wmo:42887:1,2009-12-02T22:00:00Z,28.1910,-88.4960,48.2,10.1,250.0,99.0,'11111222,11111222,11144222' 
ADCP,ioos:station:wmo:42887:1,2009-12-02T22:20:00Z,28.1910,-88.4960,48.2,9.2,250.0,99.0,'11111222,11111222,11144222' 
ADCP,ioos:station:wmo:42887:1,2009-12-02T22:40:00Z,28.1910,-88.4960,48.2,9.7,242.0,99.0,'11111222,11111222,11144222' 
ADCP,ioos:station:wmo:42887:1,2009-12-02T23:00:00Z,28.1910,-88.4960,48.2,11.4,257.0,99.0,'11111222,11111222,11144222' 
ADCP,ioos:station:wmo:42887:1,2009-12-02T23:20:00Z,28.1910,-88.4960,48.2,8.9,260.0,99.0,'11111222,11111222,11144222' 
ADCP,ioos:station:wmo:42887:1,2009-12-02T23:40:00Z,28.1910,-88.4960,48.2,12.2,264.0,99.0,'11111222,11111222,11144222' 
ADCP,ioos:station:wmo:42887:1,2009-12-03T00:00:00Z,28.1910,-88.4960,48.2,12.3,269.0,99.0,'11111222,11111222,11144222' 
ADCP,ioos:station:wmo:42887:1,2009-12-03T00:20:00Z,28.1910,-88.4960,48.2,12.3,255.0,99.0,'11111222,11111222,11144222' 
ADCP,ioos:station:wmo:42887:1,2009-12-03T00:40:00Z,28.1910,-88.4960,48.2,10.7,266.0,99.0,'11111222,11111222,11144222' 
ADCP,ioos:station:wmo:42887:1,2009-12-03T01:00:00Z,28.1910,-88.4960,48.2,9.8,279.0,99.0,'11111222,11111222,11144222' 
ADCP,ioos:station:wmo:42887:1,2009-12-03T01:20:00Z,28.1910,-88.4960,48.2,11.3,260.0,99.0,'11111222,11111222,11144222' 
ADCP,ioos:station:wmo:42887:1,2009-12-03T01:40:00Z,28.1910,-88.4960,48.2,10.8,266.0,99.0,'11111222,11111222,11144222' 
ADCP,ioos:station:wmo:42887:1,2009-12-03T02:00:00Z,28.1910,-88.4960,48.2,11.6,270.0,99.0,'11111222,11111222,11144222' 
ADCP,ioos:station:wmo:42887:1,2009-12-03T02:20:00Z,28.1910,-88.4960,48.2,10.4,277.0,99.0,'11111222,11111222,11144222' 
ADCP,ioos:station:wmo:42887:1,2009-12-03T02:40:00Z,28.1910,-88.4960,48.2,11.5,275.0,99.0,'11111222,11111222,11144222' 
ADCP,ioos:station:wmo:42887:1,2009-12-03T03:00:00Z,28.1910,-88.4960,48.2,10.4,268.0,99.0,'11111222,11111222,11144222' 
ADCP,ioos:station:wmo:42887:1,2009-12-03T03:20:00Z,28.1910,-88.4960,48.2,11.3,273.0,99.0,'11111222,11111222,11144222' 
ADCP,ioos:station:wmo:42887:1,2009-12-03T03:40:00Z,28.1910,-88.4960,48.2,10.9,277.0,99.0,'11111222,11111222,11144222' 
ADCP,ioos:station:wmo:42887:1,2009-12-03T04:00:00Z,28.1910,-88.4960,48.2,8.7,290.0,99.0,'11111222,11111222,11144222' 
ADCP,ioos:station:wmo:42887:1,2009-12-03T04:20:00Z,28.1910,-88.4960,48.2,8.3,294.0,99.0,'11111222,11111222,11144222' 
ADCP,ioos:station:wmo:42887:1,2009-12-03T04:40:00Z,28.1910,-88.4960,48.2,9.8,305.0,99.0,'11111222,11111222,11144222' 
ADCP,ioos:station:wmo:42887:1,2009-12-03T05:00:00Z,28.1910,-88.4960,48.2,9.1,305.0,99.0,'11111222,11111222,11144222' 
ADCP,ioos:station:wmo:42887:1,2009-12-03T05:20:00Z,28.1910,-88.4960,48.2,8.7,305.0,99.0,'11111222,11111222,11144222' 
ADCP,ioos:station:wmo:42887:1,2009-12-03T05:40:00Z,28.1910,-88.4960,48.2,9.1,303.0,99.0,'11111222,11111222,11144222' 
ADCP,ioos:station:wmo:42887:1,2009-12-03T06:00:00Z,28.1910,-88.4960,48.2,10.1,297.0,99.0,'11111222,11111222,11144222' 
ADCP,ioos:station:wmo:42887:1,2009-12-03T06:20:00Z,28.1910,-88.4960,48.2,7.8,296.0,99.0,'11111222,11111222,11144222' 
ADCP,ioos:station:wmo:42887:1,2009-12-03T07:00:00Z,28.1910,-88.4960,48.2,7.7,315.0,99.0,'11111222,11111222,11144222' 
ADCP,ioos:station:wmo:42887:1,2009-12-03T07:20:00Z,28.1910,-88.4960,48.2,7.6,307.0,99.0,'11111222,11111222,11144222' 
ADCP,ioos:station:wmo:42887:1,2009-12-03T07:40:00Z,28.1910,-88.4960,48.2,8.0,294.0,99.0,'11111222,11111222,11144222' 
ADCP,ioos:station:wmo:42887:1,2009-12-03T08:00:00Z,28.1910,-88.4960,48.2,8.4,298.0,99.0,'11111222,11111222,11144222' 
ADCP,ioos:station:wmo:42887:1,2009-12-03T08:20:00Z,28.1910,-88.4960,48.2,8.8,310.0,99.0,'11111222,11111222,11144222' 
ADCP,ioos:station:wmo:42887:1,2009-12-03T08:40:00Z,28.1910,-88.4960,48.2,6.9,308.0,99.0,'11111222,11111222,11144222' 
ADCP,ioos:station:wmo:42887:1,2009-12-03T09:00:00Z,28.1910,-88.4960,48.2,8.0,319.0,99.0,'11111222,11111222,11144222' 
ADCP,ioos:station:wmo:42887:1,2009-12-03T09:20:00Z,28.1910,-88.4960,48.2,8.9,311.0,99.0,'11111222,11111222,11144222' 
ADCP,ioos:station:wmo:42887:1,2009-12-03T09:40:00Z,28.1910,-88.4960,48.2,7.7,301.0,99.0,'11111222,11111222,11144222' 
ADCP,ioos:station:wmo:42887:1,2009-12-03T10:00:00Z,28.1910,-88.4960,48.2,8.6,297.0,99.0,'11111222,11111222,11144222' 
ADCP,ioos:station:wmo:42887:1,2009-12-03T10:20:00Z,28.1910,-88.4960,48.2,8.6,294.0,99.0,'11111222,11111222,11144222' 
ADCP,ioos:station:wmo:42887:1,2009-12-03T10:40:00Z,28.1910,-88.4960,48.2,8.6,300.0,99.0,'11111222,11111222,11144222' 
ADCP,ioos:station:wmo:42887:1,2009-12-03T11:00:00Z,28.1910,-88.4960,48.2,9.2,305.0,99.0,'11111222,11111222,11144222' 
ADCP,ioos:station:wmo:42887:1,2009-12-03T11:20:00Z,28.1910,-88.4960,48.2,9.1,310.0,99.0,'11111222,11111222,11144222' 
ADCP,ioos:station:wmo:42887:1,2009-12-03T11:40:00Z,28.1910,-88.4960,48.2,9.2,296.0,99.0,'11111222,11111222,11144222' 
ADCP,ioos:station:wmo:42887:1,2009-12-03T12:00:00Z,28.1910,-88.4960,48.2,7.7,303.0,99.0,'11111222,11111222,11144222' 
ADCP,ioos:station:wmo:42887:1,2009-12-03T12:20:00Z,28.1910,-88.4960,48.2,7.2,289.0,99.0,'11111222,11111222,11144222' 
ADCP,ioos:station:wmo:42887:1,2009-12-03T12:40:00Z,28.1910,-88.4960,48.2,6.8,314.0,99.0,'11111222,11111222,11144222' 
ADCP,ioos:station:wmo:42887:1,2009-12-03T13:00:00Z,28.1910,-88.4960,48.2,5.6,320.0,99.0,'11111222,11111222,11144222' 
ADCP,ioos:station:wmo:42887:1,2009-12-03T13:20:00Z,28.1910,-88.4960,48.2,5.8,315.0,99.0,'11111222,11111222,11144222' 
ADCP,ioos:station:wmo:42887:1,2009-12-03T13:40:00Z,28.1910,-88.4960,48.2,5.5,317.0,99.0,'11111222,11111222,11144222' 
ADCP,ioos:station:wmo:42887:1,2009-12-03T14:00:00Z,28.1910,-88.4960,48.2,5.5,327.0,99.0,'11111222,11111222,11144222' 
ADCP,ioos:station:wmo:42887:1,2009-12-03T14:20:00Z,28.1910,-88.4960,48.2,5.1,337.0,99.0,'11111222,11111222,11144222' 
ADCP,ioos:station:wmo:42887:1,2009-12-03T14:40:00Z,28.1910,-88.4960,48.2,4.9,337.0,99.0,'11111222,11111222,11144222' 
ADCP,ioos:station:wmo:42887:1,2009-12-03T15:00:00Z,28.1910,-88.4960,48.2,4.3,335.0,99.0,'11111222,11111222,11144222' 
ADCP,ioos:station:wmo:42887:1,2009-12-03T15:20:00Z,28.1910,-88.4960,48.2,3.8,306.0,99.0,'11111222,11111222,11144222' 
ADCP,ioos:station:wmo:42887:1,2009-12-03T15:40:00Z,28.1910,-88.4960,48.2,4.0,332.0,99.0,'11111222,11111222,11144222' 
ADCP,ioos:station:wmo:42887:1,2009-12-03T16:00:00Z,28.1910,-88.4960,48.2,4.7,324.0,99.0,'11111222,11111222,11144222' 
ADCP,ioos:station:wmo:42887:1,2009-12-03T16:20:00Z,28.1910,-88.4960,48.2,4.1,334.0,99.0,'11111222,11111222,11144222' 
ADCP,ioos:station:wmo:42887:1,2009-12-03T16:40:00Z,28.1910,-88.4960,48.2,4.8,321.0,99.0,'11111222,11111222,11144222' 
ADCP,ioos:station:wmo:42887:1,2009-12-03T17:00:00Z,28.1910,-88.4960,48.2,2.6,313.0,99.0,'11111222,11111222,11144222' 
ADCP,ioos:station:wmo:42887:1,2009-12-03T17:20:00Z,28.1910,-88.4960,48.2,4.8,339.0,99.0,'11111222,11111222,11144222' 
ADCP,ioos:station:wmo:42887:1,2009-12-03T17:40:00Z,28.1910,-88.4960,48.2,5.3,334.0,99.0,'11111222,11111222,11144222' 
ADCP,ioos:station:wmo:42887:1,2009-12-03T18:00:00Z,28.1910,-88.4960,48.2,5.1,330.0,99.0,'11111222,11111222,11144222' 
ADCP,ioos:station:wmo:42887:1,2009-12-03T18:20:00Z,28.1910,-88.4960,48.2,5.4,333.0,99.0,'11111222,11111222,11144222' 
ADCP,ioos:station:wmo:42887:1,2009-12-03T18:40:00Z,28.1910,-88.4960,48.2,3.8,318.0,99.0,'11111222,11111222,11144222' 
ADCP,ioos:station:wmo:42887:1,2009-12-03T19:00:00Z,28.1910,-88.4960,48.2,4.2,325.0,99.0,'11111222,11111222,11144222' 
ADCP,ioos:station:wmo:42887:1,2009-12-03T19:20:00Z,28.1910,-88.4960,48.2,4.8,327.0,99.0,'11111222,11111222,11144222' 
ADCP,ioos:station:wmo:42887:1,2009-12-03T19:40:00Z,28.1910,-88.4960,48.2,3.8,321.0,99.0,'11111222,11111222,11144222' 
ADCP,ioos:station:wmo:42887:1,2009-12-03T20:00:00Z,28.1910,-88.4960,48.2,4.3,312.0,99.0,'11111222,11111222,11144222' 
ADCP,ioos:station:wmo:42887:1,2009-12-03T20:20:00Z,28.1910,-88.4960,48.2,3.8,324.0,99.0,'11111222,11111222,11144222' 
ADCP,ioos:station:wmo:42887:1,2009-12-03T20:40:00Z,28.1910,-88.4960,48.2,4.3,334.0,99.0,'11111222,11111222,11144222' 
ADCP,ioos:station:wmo:42887:1,2009-12-03T21:00:00Z,28.1910,-88.4960,48.2,3.1,350.0,99.0,'11111222,11111222,11144222' 
ADCP,ioos:station:wmo:42887:1,2009-12-03T21:20:00Z,28.1910,-88.4960,48.2,2.5,230.0,99.0,'11111222,11111222,11144222' 
ADCP,ioos:station:wmo:42887:1,2009-12-03T21:40:00Z,28.1910,-88.4960,48.2,2.1,318.0,99.0,'11111222,11111222,11144222' 
ADCP,ioos:station:wmo:42887:1,2009-12-03T22:00:00Z,28.1910,-88.4960,48.2,4.6,349.0,99.0,'11111222,11111222,11144222' 